Lawrence, KS

8:28 PM CST on February 25, 2017 (GMT -0600)
Lawrence Municipal

Weather History for KLWC - June, 2013

Change the Weather History Date:

Thursday, June 20, 2013

  Actual Average Record
Temperature  
Mean Temperature 81 °F 75 °F  
Max Temperature 93 °F 86 °F 97 °F (2016)
Min Temperature 68 °F 64 °F 59 °F (1999)
Degree Days  
Heating Degree Days 0 0  
Month to date heating degree days 13 6  
Since 1 June heating degree days 13 6  
Since 1 July heating degree days 5283 5090  
Cooling Degree Days 16 10  
Month to date cooling degree days 151 163  
Year to date cooling degree days 278 282  
Since 1 June cooling degree days 151 163  
Growing Degree Days 30 (Base 50)    
Moisture  
Dew Point 69 °F    
Average Humidity 71    
Maximum Humidity 90    
Minimum Humidity 52    
Precipitation  
Precipitation 0.00 in 0.16 in 2.45 in (2000)
Month to date precipitation 0.78 3.93  
Year to date precipitation 15.09 17.82  
Sea Level Pressure  
Sea Level Pressure 29.93 in    
Wind  
Wind Speed 13 mph (SSE)    
Max Wind Speed 26 mph    
Max Gust Speed 33 mph    
Visibility 10 miles    
Events      
T = Trace of Precipitation, MM = Missing Value Source: NWS Daily Summary

Daily Weather History Graph

Daily Weather History Graph

Search for Another Location

Airport or City:

Trip Planner

Search our weather history database for the weather conditions in past years. The results will help you decide how hot, cold, wet, or windy it might be!

Date:

Astronomy

Jun. 20, 2013 Rise Set
Actual Time 5:55 AM CDT 8:49 PM CDT
Civil Twilight 5:23 AM CDT 9:22 PM CDT
Nautical Twilight 4:42 AM CDT 10:02 PM CDT
Astronomical Twilight 3:55 AM CDT 10:49 PM CDT
Moon 5:54 PM CDT (6/20) 3:21 AM CDT (6/20)
Length of Visible Light 15h 58m
Length of Day
14h 54m
Waxing Gibbous, 89% of the Moon is Illuminated
Jun 20
Waxing Gibbous
Jun 23
Full
Jun 29
Last Quarter
Jul 8
New
Jul 15
First Quarter

Hourly Weather History & Observations

Time (CDT) Temp. Heat Index Dew Point Humidity Pressure Visibility Wind Dir Wind Speed Gust Speed Precip Events Conditions
12:52 AM 69.1 °F - 64.9 °F 87% 29.97 in 10.0 mi ESE 5.8 mph - N/A   Clear
1:52 AM 69.1 °F - 64.9 °F 87% 29.97 in 10.0 mi ESE 5.8 mph - N/A   Partly Cloudy
2:52 AM 68.0 °F - 64.9 °F 90% 29.96 in 10.0 mi ESE 5.8 mph - N/A   Clear
3:52 AM 70.0 °F - 66.0 °F 87% 29.96 in 10.0 mi SE 6.9 mph - N/A   Overcast
4:52 AM 70.0 °F - 64.9 °F 84% 29.96 in 10.0 mi SE 6.9 mph - N/A   Clear
5:52 AM 70.0 °F - 64.9 °F 84% 29.96 in 10.0 mi SE 6.9 mph - N/A   Clear
6:52 AM 71.1 °F - 66.0 °F 84% 29.98 in 10.0 mi SE 5.8 mph - N/A   Partly Cloudy
7:52 AM 75.0 °F - 66.9 °F 76% 29.98 in 10.0 mi SSE 8.1 mph - N/A   Partly Cloudy
8:52 AM 79.0 °F - 66.9 °F 66% 29.99 in 10.0 mi SSE 13.8 mph 19.6 mph N/A   Partly Cloudy
9:52 AM 81.0 °F 83.8 °F 68.0 °F 65% 29.98 in 10.0 mi South 13.8 mph 23.0 mph N/A   Partly Cloudy
10:52 AM 84.9 °F 89.4 °F 70.0 °F 61% 29.96 in 10.0 mi SSE 18.4 mph 24.2 mph N/A   Clear
11:52 AM 86.0 °F 91.5 °F 71.1 °F 61% 29.96 in 10.0 mi South 15.0 mph - N/A   Clear
12:52 PM 88.0 °F 93.8 °F 71.1 °F 57% 29.94 in 10.0 mi South 21.9 mph 29.9 mph N/A   Mostly Cloudy
1:52 PM 90.0 °F 96.4 °F 71.1 °F 54% 29.91 in 10.0 mi SSE 21.9 mph 31.1 mph N/A   Partly Cloudy
2:52 PM 91.0 °F 97.6 °F 71.1 °F 52% 29.89 in 10.0 mi SSE 23.0 mph 33.4 mph N/A   Clear
3:52 PM 91.9 °F 99.5 °F 72.0 °F 52% 29.88 in 10.0 mi SSE 24.2 mph 31.1 mph N/A   Clear
4:52 PM 91.9 °F 99.5 °F 72.0 °F 52% 29.87 in 10.0 mi SSE 21.9 mph 29.9 mph N/A   Clear
5:52 PM 91.0 °F 98.2 °F 72.0 °F 53% 29.86 in 10.0 mi SSE 23.0 mph 29.9 mph N/A   Clear
6:52 PM 89.1 °F 96.0 °F 72.0 °F 57% 29.86 in 10.0 mi SSE 18.4 mph - N/A   Clear
7:52 PM 87.1 °F 93.6 °F 72.0 °F 61% 29.87 in 10.0 mi SSE 13.8 mph 21.9 mph N/A   Clear
8:52 PM 82.9 °F 88.8 °F 73.0 °F 72% 29.89 in 10.0 mi SSE 9.2 mph - N/A   Clear
9:52 PM 81.0 °F 85.8 °F 73.0 °F 77% 29.91 in 10.0 mi SE 6.9 mph - N/A   Clear
10:52 PM 80.1 °F 84.2 °F 73.0 °F 79% 29.93 in 10.0 mi SE 5.8 mph - N/A   Clear
11:52 PM 80.1 °F 83.8 °F 72.0 °F 76% 29.95 in 10.0 mi SSE 10.4 mph - N/A   Clear